Wind_Speed
16 15 13 11 11 11 10 10 9 7 5 4 4 6 8 12 13 13 14 14 12 11 9 8 7 7 7 7 6 6 6 5 5 5 5 5 4 4 3 4 4 3 3
16 15 13 11 10 10 10 10 9 7 5 4 3 5 7 10 11 13 14 14 13 12 11 9 9 8 8 8 7 7 7 7 7 7 6 6 6 6 5 5 5 5 4
15 14 13 12 10 10 10 10 8 7 6 5 2 4 7 9 10 12 14 14 13 13 11 10 10 9 9 9 9 9 9 9 9 8 8 7 7 7 6 6 6 5 6
15 14 13 12 10 9 9 10 9 7 6 4 3 3 7 9 10 12 13 13 13 12 12 11 11 10 11 10 10 10 10 10 10 10 9 9 9 8 8 8 8 8 8
15 14 13 12 10 9 9 10 9 7 6 5 4 5 7 9 10 10 11 12 12 12 13 12 12 12 12 12 11 11 11 11 11 11 11 11 10 10 9 9 9 9 10
15 14 13 12 11 10 10 10 8 7 6 5 4 5 6 8 9 9 10 11 12 13 13 13 13 13 13 13 12 11 12 12 12 12 12 12 12 11 11 11 11 11 11
15 15 13 11 11 10 9 8 8 7 6 5 4 5 6 8 9 9 9 11 11 12 12 13 13 13 14 14 13 13 13 13 13 13 13 13 13 14 14 13 13 13 13
14 14 12 10 10 10 9 8 7 7 5 4 3 4 5 7 8 9 9 10 11 12 12 13 14 14 14 14 14 14 14 15 15 14 14 15 15 15 15 15 16 16 15
13 12 11 9 10 9 9 8 7 6 5 4 3 5 5 6 7 8 9 10 11 12 13 13 13 13 14 15 15 16 16 16 16 16 16 16 16 16 16 16 17 17 18
14 11 9 8 9 9 9 9 8 7 5 4 3 5 6 7 8 9 10 10 11 12 13 14 15 14 14 15 16 16 17 17 17 18 18 17 17 17 18 18 18 19 20
15 12 9 8 9 9 9 10 9 8 6 5 4 5 6 7 8 8 9 10 12 13 13 14 16 16 17 16 16 16 16 17 19 19 19 19 19 19 20 20 20 20 21
13 13 10 10 9 9 9 9 9 8 7 6 6 6 6 7 8 9 10 11 12 13 14 15 15 16 17 17 17 17 17 18 19 19 19 20 20 20 21 22 22 22 23
14 13 12 11 10 10 10 10 9 9 8 7 7 7 8 8 9 9 10 11 12 12 13 14 14 15 16 17 17 18 19 19 20 21 21 21 21 22 23 23 23 23 24
15 14 13 12 11 12 11 10 10 10 9 8 8 9 9 9 10 10 11 11 12 12 13 14 15 16 16 18 18 19 18 19 20 22 22 23 23 23 25 25 24 25 26
18 16 15 14 14 13 13 12 11 11 10 10 10 10 10 10 10 11 12 13 13 14 15 16 16 16 17 18 19 20 20 21 22 23 23 24 24 24 25 25 26 26 27
21 18 16 16 16 15 14 14 13 13 12 12 12 11 11 11 12 12 13 14 14 15 15 16 17 17 18 19 20 20 20 21 21 21 22 23 24 24 24 25 26 27 27
23 22 18 17 16 16 15 15 14 14 14 14 14 13 13 13 13 14 14 14 15 16 17 17 17 18 19 19 19 20 21 21 21 21 22 23 24 25 26 26 26 26 27
24 22 20 19 17 17 17 16 15 15 15 15 15 15 15 15 15 16 15 15 16 18 19 19 19 19 20 20 21 22 22 23 23 23 23 23 24 25 25 26 27 27 27
25 23 22 21 19 19 18 18 17 17 16 16 16 16 16 17 17 17 16 17 17 18 19 19 20 21 21 22 22 23 23 23 23 24 24 23 24 25 25 26 26 27 27
27 26 24 22 21 21 21 20 19 18 18 18 17 17 17 18 18 19 18 18 18 19 19 20 21 21 21 21 22 23 23 23 23 24 24 24 24 25 25 25 27 27 28
28 27 26 24 22 22 22 21 21 20 20 19 19 19 19 19 19 19 19 19 20 20 20 21 21 21 22 22 22 23 23 23 24 24 24 24 25 25 25 26 27 28 28
29 28 27 25 24 24 24 24 23 22 22 22 21 22 21 21 21 21 21 20 21 21 21 21 21 22 22 22 22 22 22 22 23 23 24 24 25 26 27 28 28 29 30
31 31 29 28 28 27 26 25 25 25 25 24 24 24 23 23 23 22 22 22 23 23 22 23 23 23 23 23 22 22 22 23 24 24 25 26 27 28 28 29 29 30 30
33 33 32 32 31 30 29 28 27 27 27 27 26 25 25 24 24 23 23 24 24 24 23 23 23 23 23 23 24 24 24 24 25 25 26 27 28 28 29 30 30 30 31
36 35 34 33 33 31 30 30 29 29 30 29 28 27 27 26 26 25 25 25 25 25 25 25 25 25 25 25 25 24 24 24 25 26 26 27 28 28 29 29 30 31 32
37 35 34 34 33 33 32 32 31 32 31 31 30 29 28 28 27 27 27 27 27 27 26 26 26 26 25 25 24 24 24 24 25 26 26 27 27 28 28 28 29 30 31
Wind_Direction
347 345 341 342 346 349 345 344 336 325 316 302 263 227 216 213 211 210 210 209 207 207 209 209 212 215 218 220 222 221 224 224 221 222 222 217 208 206 214 221 222 227 237
347 344 341 339 342 349 349 346 341 332 321 308 284 224 212 206 207 207 210 209 206 208 210 212 216 220 220 221 225 230 231 228 228 231 228 227 224 219 223 229 229 230 235
344 343 341 339 341 345 344 342 338 327 322 312 283 216 205 205 204 207 210 208 206 208 212 217 220 222 222 226 229 231 231 232 232 236 235 234 234 235 236 237 236 236 240
342 342 341 340 338 338 338 336 334 330 326 316 278 221 208 207 205 205 204 204 208 213 218 221 223 228 232 233 234 235 234 235 235 236 238 238 240 242 243 243 243 244 247
340 340 339 335 331 331 333 330 328 327 318 309 272 230 212 211 210 208 208 211 217 221 224 227 228 231 235 236 239 240 239 240 240 239 239 239 241 244 246 247 249 253 256
337 340 340 336 333 328 329 329 326 325 317 302 266 236 216 211 212 212 212 216 222 226 229 230 230 233 236 237 240 242 241 242 242 242 240 241 243 246 249 251 253 259 262
334 334 332 331 335 332 328 328 324 320 314 305 261 235 220 216 214 217 219 218 220 225 229 233 235 238 239 240 243 247 244 245 246 244 245 246 249 251 254 255 256 259 263
333 332 329 326 334 335 331 329 326 325 317 306 257 232 228 221 216 216 220 223 225 229 234 237 237 239 242 242 245 249 250 250 250 249 251 251 253 254 255 258 260 260 261
333 334 330 322 328 333 334 328 324 325 321 310 256 232 229 226 226 224 226 229 232 235 237 242 242 243 246 246 247 250 251 252 252 252 253 253 256 257 258 260 262 264 264
331 332 327 326 326 326 330 333 325 321 315 302 268 245 234 238 237 236 237 243 244 245 246 246 245 247 251 252 251 252 254 255 255 255 255 255 256 257 259 261 264 265 266
325 328 328 325 325 325 328 331 326 317 307 292 269 255 251 249 247 246 244 247 249 249 251 251 250 251 252 252 253 255 256 256 255 255 257 258 258 259 262 263 266 267 269
327 335 331 326 325 322 324 326 324 319 311 298 280 269 268 265 260 254 252 253 253 253 253 254 255 254 255 252 255 256 257 256 257 257 259 260 259 260 264 265 266 269 272
323 329 329 326 324 321 319 318 316 314 312 304 292 285 279 275 271 266 261 261 261 260 256 253 255 255 254 254 256 259 259 258 258 258 259 260 262 264 267 268 268 269 273
316 320 323 323 321 320 315 311 309 308 306 304 296 289 284 279 272 268 267 266 264 263 260 258 259 257 255 254 257 260 261 263 262 260 260 262 265 267 268 270 271 272 275
312 315 318 319 317 316 313 306 304 302 299 297 296 293 286 282 278 272 270 266 265 265 267 265 263 259 258 260 260 260 262 263 265 265 264 264 265 268 270 271 273 275 276
307 307 311 311 311 311 308 303 299 297 295 290 291 293 292 287 282 278 273 269 267 268 270 269 266 263 263 261 260 261 262 264 266 266 265 266 268 269 271 274 275 276 278
299 302 303 305 305 305 304 299 294 294 292 287 285 287 289 288 287 285 281 278 274 272 270 269 267 266 263 261 263 265 265 265 266 267 268 268 269 272 273 274 276 279 280
296 298 299 299 301 302 301 299 295 294 293 287 285 283 283 284 284 284 282 280 278 275 273 271 269 268 266 266 266 266 266 266 267 267 270 270 271 274 275 276 279 280 281
292 294 293 294 296 297 297 297 295 294 292 289 286 284 284 285 283 282 281 280 280 280 276 274 272 269 268 268 268 269 269 269 271 271 272 272 271 273 276 278 279 280 282
287 289 289 287 289 292 291 292 293 292 291 290 289 286 286 285 282 281 281 282 281 279 279 279 276 273 270 269 269 271 270 270 271 272 273 274 275 278 279 281 282 284 284
283 284 285 283 283 287 290 289 288 288 287 288 289 288 287 286 285 283 281 280 280 279 278 278 277 275 272 272 272 273 274 272 273 273 273 274 275 277 278 281 284 285 286
281 283 283 279 280 283 285 285 284 284 284 285 287 287 286 284 283 282 281 280 280 281 280 278 279 277 274 273 272 273 275 275 275 275 274 275 276 277 279 281 284 286 287
279 281 280 279 280 281 282 282 282 282 283 283 284 284 284 282 281 280 279 279 279 280 279 279 279 278 275 273 272 272 274 276 277 278 278 278 279 280 281 283 285 286 289
277 280 278 279 280 281 281 280 280 282 283 283 283 283 282 281 280 279 279 279 278 278 278 278 277 276 275 273 271 272 273 275 278 279 279 279 281 281 283 284 286 288 290
275 277 275 275 277 277 278 278 279 281 282 281 282 281 280 279 279 279 278 277 278 279 278 277 277 277 275 273 271 271 275 277 279 279 279 280 281 283 285 286 287 289 290
273 275 274 273 275 277 277 277 277 279 280 280 280 280 279 279 278 277 276 277 276 276 276 275 276 276 274 273 274 276 277 278 279 280 281 281 284 286 286 287 289 290 289
Height
5897 5894 5892 5890 5888 5886 5884 5882 5880 5879 5878 5878 5878 5879 5880 5882 5884 5886 5889 5891 5893 5895 5896 5897 5899 5900 5901 5902 5903 5903 5904 5904 5905 5905 5906 5906 5906 5906 5906 5906 5906 5906 5906
5897 5894 5892 5889 5887 5885 5884 5882 5880 5878 5877 5876 5876 5877 5878 5880 5882 5884 5886 5889 5891 5893 5895 5896 5897 5899 5899 5900 5901 5902 5902 5903 5904 5904 5905 5905 5906 5905 5906 5905 5905 5905 5905
5896 5893 5891 5888 5886 5885 5883 5881 5879 5877 5876 5875 5875 5876 5877 5878 5880 5882 5884 5886 5889 5890 5892 5894 5895 5897 5898 5899 5899 5900 5901 5901 5902 5903 5903 5904 5904 5904 5905 5904 5904 5904 5904
5894 5891 5889 5887 5885 5884 5882 5880 5878 5876 5875 5874 5873 5874 5875 5877 5878 5880 5882 5884 5886 5888 5890 5891 5893 5894 5895 5896 5897 5898 5898 5899 5900 5901 5901 5902 5902 5903 5903 5903 5903 5903 5903
5892 5890 5888 5886 5884 5882 5881 5879 5877 5875 5874 5873 5872 5872 5874 5875 5877 5878 5880 5882 5884 5886 5887 5889 5890 5892 5893 5894 5894 5895 5896 5896 5897 5898 5899 5899 5900 5900 5901 5901 5901 5901 5901
5890 5888 5886 5885 5883 5881 5879 5878 5876 5874 5873 5871 5871 5871 5872 5873 5875 5877 5878 5880 5881 5883 5885 5886 5888 5889 5890 5891 5892 5893 5893 5894 5894 5895 5896 5897 5898 5898 5898 5899 5899 5899 5899
5889 5887 5885 5883 5881 5879 5877 5876 5874 5873 5871 5870 5869 5869 5870 5872 5874 5875 5876 5878 5879 5881 5882 5884 5885 5886 5887 5888 5889 5889 5890 5891 5892 5892 5893 5894 5894 5895 5895 5896 5896 5896 5896
5887 5885 5883 5881 5880 5878 5876 5874 5873 5872 5870 5869 5868 5869 5869 5870 5872 5873 5874 5875 5877 5878 5879 5880 5881 5883 5883 5884 5885 5886 5887 5888 5888 5889 5890 5890 5891 5891 5892 5892 5892 5892 5892
5884 5882 5880 5879 5878 5877 5875 5873 5872 5871 5869 5868 5867 5868 5868 5869 5870 5871 5872 5873 5874 5875 5876 5877 5878 5879 5880 5881 5882 5883 5883 5884 5885 5885 5886 5886 5887 5887 5887 5888 5888 5888 5888
5881 5879 5878 5877 5876 5875 5873 5872 5870 5869 5868 5867 5867 5867 5867 5868 5868 5869 5870 5871 5871 5872 5873 5874 5875 5876 5877 5877 5878 5879 5879 5880 5880 5881 5882 5882 5883 5883 5883 5883 5883 5883 5883
5879 5877 5876 5875 5874 5873 5872 5870 5869 5868 5867 5866 5866 5866 5866 5866 5866 5867 5867 5868 5869 5869 5870 5870 5871 5872 5872 5873 5873 5874 5874 5875 5876 5876 5877 5877 5878 5878 5878 5878 5878 5878 5877
5877 5876 5874 5873 5872 5871 5870 5868 5867 5866 5865 5864 5864 5864 5864 5864 5864 5864 5865 5865 5865 5866 5866 5866 5867 5867 5867 5868 5869 5869 5870 5870 5871 5871 5871 5871 5872 5872 5872 5872 5872 5872 5871
5875 5874 5872 5871 5869 5868 5867 5866 5865 5864 5863 5863 5862 5862 5862 5862 5861 5861 5861 5862 5862 5862 5862 5862 5862 5863 5863 5863 5864 5864 5865 5865 5865 5866 5866 5866 5866 5866 5866 5866 5866 5865 5864
5872 5871 5870 5868 5867 5866 5865 5864 5863 5862 5861 5861 5860 5860 5859 5859 5859 5858 5858 5858 5858 5858 5858 5858 5858 5858 5858 5859 5859 5859 5859 5859 5859 5860 5860 5860 5860 5860 5860 5859 5859 5858 5857
5869 5868 5866 5865 5864 5863 5862 5862 5861 5860 5859 5858 5857 5857 5856 5856 5855 5855 5855 5854 5854 5854 5854 5853 5853 5853 5853 5854 5854 5854 5854 5854 5854 5854 5854 5854 5854 5853 5853 5852 5852 5851 5850
5865 5864 5863 5862 5861 5860 5859 5858 5858 5857 5856 5855 5854 5854 5853 5852 5852 5851 5851 5850 5850 5850 5849 5849 5848 5848 5848 5848 5848 5848 5848 5848 5848 5847 5847 5847 5847 5846 5846 5845 5844 5843 5842
5860 5860 5859 5858 5857 5856 5855 5855 5854 5853 5852 5851 5850 5850 5849 5848 5847 5847 5846 5845 5845 5845 5844 5844 5843 5843 5843 5842 5842 5843 5842 5842 5841 5841 5841 5840 5840 5839 5839 5838 5837 5835 5834
5855 5855 5854 5854 5853 5852 5851 5850 5850 5849 5848 5847 5846 5845 5845 5844 5843 5842 5842 5841 5840 5840 5839 5839 5838 5838 5837 5837 5837 5836 5836 5835 5835 5834 5834 5834 5833 5832 5832 5830 5829 5828 5827
5851 5850 5849 5849 5848 5847 5846 5846 5845 5844 5843 5842 5841 5840 5840 5839 5838 5837 5837 5836 5835 5834 5834 5833 5832 5832 5831 5831 5830 5830 5829 5829 5828 5827 5827 5826 5826 5825 5824 5823 5822 5821 5819
5846 5845 5844 5843 5843 5842 5841 5840 5839 5839 5838 5837 5836 5835 5835 5834 5833 5832 5831 5830 5829 5829 5828 5827 5826 5825 5825 5824 5824 5823 5822 5822 5821 5821 5820 5820 5819 5818 5817 5816 5814 5813 5811
5839 5838 5837 5837 5836 5836 5835 5834 5834 5833 5833 5832 5831 5830 5829 5828 5827 5826 5825 5825 5824 5823 5822 5821 5820 5819 5818 5818 5817 5817 5816 5815 5814 5814 5813 5812 5811 5810 5809 5808 5806 5804 5802
5832 5831 5831 5830 5829 5829 5829 5828 5828 5827 5826 5826 5825 5824 5823 5822 5821 5820 5819 5818 5817 5816 5815 5814 5813 5812 5812 5811 5810 5810 5809 5808 5808 5807 5806 5805 5804 5803 5801 5800 5798 5796 5794
5825 5824 5824 5823 5822 5822 5821 5821 5820 5820 5819 5819 5818 5817 5816 5815 5814 5813 5812 5811 5810 5810 5809 5807 5806 5805 5804 5804 5803 5803 5802 5801 5800 5799 5798 5797 5796 5795 5793 5791 5789 5787 5784
5816 5816 5816 5815 5815 5814 5814 5813 5813 5812 5812 5811 5810 5810 5809 5808 5807 5806 5805 5804 5803 5802 5801 5800 5799 5798 5797 5797 5796 5795 5794 5794 5793 5792 5791 5790 5788 5787 5784 5782 5780 5778 5775
5808 5807 5806 5806 5807 5806 5806 5805 5804 5804 5803 5803 5802 5802 5801 5800 5799 5798 5798 5797 5796 5795 5794 5793 5792 5791 5790 5789 5788 5787 5787 5786 5785 5784 5783 5781 5780 5778 5776 5773 5771 5769 5766
5798 5798 5798 5798 5797 5797 5797 5796 5796 5795 5795 5794 5793 5793 5792 5792 5791 5790 5789 5788 5788 5787 5786 5785 5785 5783 5782 5781 5781 5780 5779 5778 5777 5776 5774 5773 5771 5769 5767 5765 5762 5760 5757